Location: Stilling
(56.0622°N, 9.9882°E)
Time: 11:55:41
(UTC+00:00)

ALOS 2 - Pass Details

Date: 13 July 2020
Orbit: 630 x 632 km, 97.9° (Epoch: 07 August)

Event Time Altitude Azimuth Distance (km) Brightness Sun altitude
Exits shadow 21:30:34 - 127° (SE) 2,159 4.8 -8.5°
Reaches altitude 10° 21:30:57 10° 124° (SE) 2,016 4.7 -8.6°
Maximum altitude 21:34:51 32° 62° (ENE) 1,086 3.8 -8.8°
Drops below altitude 10° 21:38:46 10° 359° (N) 2,028 6.4 -9.0°
Sets 21:41:08 0° 350° (N) 2,940 7.9 -9.2°
